Simultaneous Nadir Overpasses (SNOs) Predictions

Prediction of SNOs between GOES-15 and METOP-A Satellite Orbit:

Table of predicted SNOs for the next 14.0 days since TLE Epoch: 11/6/2021
Index Date Time (GOES-15) GOES-15 Lat,Lon METOP-A Lat,Lon Distance(km) Time Diff (sec)
1 11/06/2021 16:16:01 -0.28,-128.46 -0.87,-125.74 309.52 80
2 11/08/2021 04:32:20 0.29,-128.45 -0.11,-130.38 219.50 80
3 11/09/2021 04:14:19 0.28,-128.45 0.95,-125.40 347.82 80
4 11/10/2021 16:30:29 -0.28,-128.45 0.05,-130.00 175.59 80
5 11/11/2021 16:12:28 -0.27,-128.45 -1.01,-125.01 391.62 80
6 11/13/2021 04:28:47 0.28,-128.44 0.04,-129.65 137.70 80
7 11/14/2021 04:10:45 0.27,-128.44 1.10,-124.67 429.49 80
8 11/15/2021 16:26:56 -0.28,-128.44 -0.11,-129.27 93.96 80
9 11/16/2021 16:08:54 -0.28,-128.44 -1.17,-124.28 473.10 80
10 11/18/2021 04:25:13 0.28,-128.42 0.15,-128.91 56.56 80
